Home > Weather > Pittsburgh > Past weeks

Flag for U.S.A. Weather for the Past 2 Weeks in Pittsburgh, Pennsylvania, U.S.A.

Now
29 °F

Light snow. Mostly cloudy.


Feels Like: 18 °F
Forecast: 31 / 37 °F
Wind: 15 mph from West

Location: Allegheny County Airport

Current Time: Feb 9, 2016 at 1:09:28 PM

Latest Report: Feb 9, 2016 at 11:53 AM


Visibility: 1 mi

Pressure: 29.61 "Hg

Humidity: 82%

Dew point: 24 °F

Location of PittsburghLocation

Historic Weather in Pittsburgh — Graph

°F

Pittsburgh Temperature Yesterday

Maximum temperature yesterday: 48 °F (at 12:53 PM)
Minimum temperature yesterday: 32 °F (at 5:53 AM)
Average temperature yesterday: 38 °F

High & Low Weather Summary for the Past Weeks

 TemperatureHumidityPressure
High65 °F (Jan 31, 2:53 PM)93% (Feb 3, 8:53 AM)30.41 "Hg (Feb 3, 8:53 AM)
Low21 °F (Jan 30, 2:53 AM)28% (Jan 25, 10:53 PM)29.51 "Hg (Feb 9, 5:04 AM)
Average39 °F61%29.98 "Hg
* Reported Jan 25 11:53 AM — Feb 9 11:53 AM, Pittsburgh, Weather by CustomWeather, © 2016

Note: Actual official high and low records may vary slightly from our data, if they occured in-between our weather recording intervals... More about our weather records

Advertising

Pittsburgh Weather History for the Previous 24 Hours

 ConditionsComfort  
Time TempWeatherWind HumidityBarometerVisibility
11:53 AM
Tue, Feb 9
29 °FLight snow. Mostly cloudy.15 mph82%29.61 "Hg1 mi
11:00 AM31 °FLight snow. Ice fog.12 mph85%29.56 "Hg1 mi
9:53 AM32 °FSnow. Fog.9 mph88%29.59 "Hg1 mi
8:53 AM33 °FLight snow. Fog.5 mph88%29.58 "Hg1 mi
7:53 AM33 °FLight snow. Fog.5 mph88%29.57 "Hg1 mi
7:01 AM32 °FLight snow. Ice fog.3 mph92%29.52 "Hg2 mi
5:53 AM32 °FIce fog.5 mph92%29.55 "Hg5 mi
5:04 AM32 °FIce fog.5 mph92%29.51 "Hg5 mi
4:53 AM32 °FIce fog.3 mph92%29.55 "Hg5 mi
3:53 AM32 °FIce fog.3 mph88%29.55 "Hg5 mi
2:53 AM33 °FLight snow. Fog.5 mph88%29.57 "Hg4 mi
1:53 AM34 °FLight snow. Fog.3 mph85%29.57 "Hg3 mi
12:53 AM34 °FOvercast.5 mph85%29.59 "Hg10 mi
11:53 PM
Mon, Feb 8
35 °FOvercast.6 mph82%29.60 "Hg10 mi
10:53 PM35 °FMostly cloudy.6 mph82%29.61 "Hg10 mi
9:53 PM36 °FMostly cloudy.7 mph79%29.62 "Hg10 mi
8:53 PM36 °FOvercast.7 mph79%29.63 "Hg10 mi
7:53 PM36 °FOvercast.12 mph79%29.64 "Hg10 mi
6:53 PM37 °FMostly cloudy.12 mph79%29.62 "Hg10 mi
5:53 PM39 °FOvercast.10 mph76%29.61 "Hg10 mi
4:53 PM39 °FMostly cloudy.8 mph82%29.60 "Hg10 mi
3:53 PM39 °FLight rain. Mostly cloudy.8 mph82%29.59 "Hg9 mi
2:53 PM39 °FLight rain. Mostly cloudy.14 mph79%29.59 "Hg10 mi
1:53 PM47 °FOvercast.15 mph41%29.56 "Hg10 mi
Weather by CustomWeather, © 2016

See weather overviewHow to use our weather pages